Regional Weather Roundup
Issued by NWS Cleveland, OH

Home | Current Version | Previous Version | Text Only | Print | Product List | Glossary On
Versions: 1 2 3 4 5 6 7 8 9 10 11 12 13 14 15 16 17 18 19 20 21 22 23 24 25 26 27 28 29 30 31 32 33 34 35 36 37 38 39 40 41 42 43 44 45 46 47 48 49 50
000
ASUS41 KCLE 040910
RWRCLE
OHIO REGIONAL WEATHER ROUNDUP
NATIONAL WEATHER SERVICE WILMINGTON, OH
500 AM EDT SAT JUL 04 2015

NOTE: "FAIR" INDICATES FEW OR NO CLOUDS BELOW 12,000 FEET WITH NO
SIGNIFICANT WEATHER AND/OR OBSTRUCTIONS TO VISIBILITY.

OHZ001>008-015>018-024>027-034-035-043-044-041000-
   NORTHWEST OHIO

CITY           SKY/WX    TMP DP  RH WIND       PRES   REMARKS
DEFIANCE       CLEAR     56  53  90 CALM      29.94S FOG
FINDLAY        CLEAR     54  51  90 CALM      29.92S
TOLEDO EXPRESS CLEAR     54  51  90 W3        29.93S
TOLEDO EXEC    CLEAR     57  52  83 NW5       29.93F
LIMA           CLEAR     52  50  93 CALM      29.93F
$$

OHZ009>014-019>023-028>033-038-089-041000-
   NORTHEAST OHIO

CITY           SKY/WX    TMP DP  RH WIND       PRES   REMARKS
CLE-HOPKINS    CLEAR     55  52  89 CALM      29.93R
CLE-LAKEFRONT  CLEAR     64  52  64 CALM      29.90S
CUY CO. ARPT   NOT AVBL
LORAIN-ELYRIA  CLEAR     57  56  96 N3        29.92S
ASHTABULA      MOCLDY    55  53  93 CALM      29.91S
AKRON-CANTON   MOCLDY    61  52  72 N8        29.89F
WOOSTER        PTCLDY    56  53  90 N8        29.91S
MANSFIELD      CLEAR     56  55  97 CALM      29.92S
YOUNGSTOWN     CLOUDY    61  57  87 E3        29.89S
$$

OHZ042-051>053-060>062-070>072-077>081-041000-
  SOUTHWEST OHIO

CITY           SKY/WX    TMP DP  RH WIND       PRES   REMARKS
CINC-COVINGTON CLOUDY    68  64  87 N5        29.92S
CINC-LUNKEN    MOCLDY    66  64  93 NE3       29.92S
HAMILTON       CLOUDY    66  63  90 CALM      29.93S
DAYTON         PTCLDY    61  59  93 NW3       29.94S
WRIGHT-PAT AFB CLEAR     62  60  93 CALM      29.93R
DAYTON GENERAL MOCLDY    62  61  96 NE5       29.92S FOG
WILMINGTON     CLEAR     62  60  93 N7        29.92S FOG
$$

OHZ036-037-039>041-045>050-054>059-063>069-073>076-082>088-041000-
  CENTRAL AND SOUTHEAST OHIO

CITY           SKY/WX    TMP DP  RH WIND       PRES   REMARKS
COLUMBUS       CLEAR     61  57  87 CALM      29.91R
OSU AIRPORT    CLEAR     59  55  87 CALM      29.92S
BOLTON FIELD   CLEAR     58  57  95 NW3       29.92S
RICKENBACK AFB CLEAR     60  58  94 NW6       29.91S
NEWARK         CLEAR     60  58  92 CALM      29.91R
MARION         CLEAR     56  53  90 NW6       29.93R
LANCASTER      FOG       59  57  93 CALM      29.91R VSB 1/4
ZANESVILLE     MOCLDY    62  59  90 W3        29.90R FOG
NEW PHILLY     MOCLDY    61  59  93 NW3       29.89S
$$



USA.gov is the U.S. government's official web portal to all federal, state and local government web resources and services.